TimePST,TemperatureF,Dew PointF,Humidity,Sea Level PressureIn,VisibilityMPH,Wind Direction,Wind SpeedMPH,Gust SpeedMPH,PrecipitationIn,Events,Conditions,WindDirDegrees,DateUTC
12:15 AM,28.8,23.5,81,30.54,10.0,WSW,8.1,-,N/A,,Clear,240,2014-01-16 08:15:00
12:35 AM,29.5,23.7,79,30.54,10.0,Calm,Calm,-,N/A,,Clear,0,2014-01-16 08:35:00
12:55 AM,30.6,24.1,77,30.54,10.0,SSE,4.6,-,N/A,,Clear,160,2014-01-16 08:55:00
1:15 AM,30.7,24.3,77,30.54,10.0,SE,4.6,-,N/A,,Clear,130,2014-01-16 09:15:00
1:35 AM,28.9,23.4,80,30.55,5.0,East,4.6,-,N/A,,Clear,90,2014-01-16 09:35:00
1:55 AM,28.6,23.2,80,30.55,10.0,SE,10.4,-,N/A,,Clear,140,2014-01-16 09:55:00
2:15 AM,31.1,23.9,75,30.54,10.0,SSW,3.5,-,N/A,,Clear,210,2014-01-16 10:15:00
2:35 AM,28.6,22.8,79,30.53,7.0,South,3.5,-,N/A,,Clear,190,2014-01-16 10:35:00
2:55 AM,26.8,21.7,81,30.53,7.0,SE,5.8,-,N/A,,Clear,130,2014-01-16 10:55:00
3:15 AM,27.1,22.1,81,30.53,7.0,ESE,5.8,-,N/A,,Clear,120,2014-01-16 11:15:00
3:35 AM,27.5,21.6,78,30.55,10.0,ENE,4.6,-,N/A,,Clear,60,2014-01-16 11:35:00
3:55 AM,27.9,22.3,80,30.55,10.0,East,3.5,-,N/A,,Clear,80,2014-01-16 11:55:00
4:15 AM,27.3,22.8,83,30.55,10.0,Calm,Calm,-,N/A,,Clear,0,2014-01-16 12:15:00
4:35 AM,27.1,22.8,84,30.55,10.0,Calm,Calm,-,N/A,,Clear,0,2014-01-16 12:35:00
4:55 AM,25.3,21.6,86,30.54,10.0,SW,3.5,-,N/A,,Clear,230,2014-01-16 12:55:00
5:15 AM,24.8,21.4,87,30.54,10.0,WSW,3.5,-,N/A,,Clear,250,2014-01-16 13:15:00
5:35 AM,25.7,21.6,84,30.54,10.0,SSW,4.6,-,N/A,,Clear,200,2014-01-16 13:35:00
5:55 AM,27.7,22.5,81,30.54,10.0,Calm,Calm,-,N/A,,Clear,0,2014-01-16 13:55:00
6:15 AM,29.1,23.0,78,30.53,10.0,SE,6.9,-,N/A,,Clear,140,2014-01-16 14:15:00
6:35 AM,27.7,22.1,80,30.53,10.0,East,5.8,-,N/A,,Clear,90,2014-01-16 14:35:00
6:55 AM,26.4,21.6,82,30.53,10.0,ESE,6.9,-,N/A,,Clear,120,2014-01-16 14:55:00
7:15 AM,26.6,21.9,82,30.54,4.0,ESE,5.8,-,N/A,,Clear,120,2014-01-16 15:15:00
7:35 AM,28.4,22.3,78,30.54,7.0,SSE,8.1,-,N/A,,Clear,150,2014-01-16 15:35:00
7:55 AM,27.0,21.6,80,30.55,7.0,ESE,3.5,-,N/A,,Clear,110,2014-01-16 15:55:00
8:15 AM,26.8,22.1,83,30.55,5.0,SW,5.8,-,N/A,,Clear,220,2014-01-16 16:15:00
8:35 AM,28.4,23.7,83,30.56,10.0,WSW,5.8,-,N/A,,Clear,240,2014-01-16 16:35:00
8:55 AM,29.7,25.0,83,30.56,7.0,Calm,Calm,-,N/A,,Clear,0,2014-01-16 16:55:00
9:15 AM,31.1,26.1,82,30.56,10.0,Calm,Calm,-,N/A,,Clear,0,2014-01-16 17:15:00
9:35 AM,31.3,25.5,79,30.56,10.0,Calm,Calm,-,N/A,,Clear,0,2014-01-16 17:35:00
9:55 AM,32.4,25.7,76,30.55,10.0,Calm,Calm,-,N/A,,Clear,0,2014-01-16 17:55:00
10:15 AM,33.1,26.6,77,30.56,10.0,North,3.5,-,N/A,,Clear,10,2014-01-16 18:15:00
10:35 AM,33.3,27.3,79,30.56,10.0,Calm,Calm,-,N/A,,Clear,0,2014-01-16 18:35:00
10:55 AM,33.4,26.8,77,30.55,10.0,Calm,Calm,-,N/A,,Clear,0,2014-01-16 18:55:00
11:15 AM,34.9,27.1,73,30.55,10.0,Calm,Calm,-,N/A,,Clear,0,2014-01-16 19:15:00
11:35 AM,36.5,27.1,69,30.53,10.0,ENE,3.5,-,N/A,,Clear,70,2014-01-16 19:35:00
11:55 AM,37.8,27.3,66,30.52,10.0,ENE,3.5,-,N/A,,Clear,70,2014-01-16 19:55:00
12:15 PM,39.2,28.6,66,30.51,10.0,East,4.6,-,N/A,,Clear,80,2014-01-16 20:15:00
12:35 PM,39.9,28.8,64,30.50,10.0,Calm,Calm,-,N/A,,Clear,0,2014-01-16 20:35:00
12:55 PM,40.5,27.5,60,30.49,10.0,NNE,3.5,-,N/A,,Clear,30,2014-01-16 20:55:00
1:15 PM,40.8,29.3,64,30.48,10.0,ENE,3.5,-,N/A,,Clear,60,2014-01-16 21:15:00
1:35 PM,41.0,29.8,64,30.48,10.0,NE,4.6,-,N/A,,Clear,50,2014-01-16 21:35:00
1:55 PM,41.2,29.5,63,30.48,10.0,East,4.6,-,N/A,,Clear,90,2014-01-16 21:55:00
2:15 PM,41.0,30.4,66,30.48,10.0,ENE,5.8,-,N/A,,Clear,70,2014-01-16 22:15:00
2:35 PM,40.5,30.0,66,30.47,10.0,East,4.6,-,N/A,,Clear,100,2014-01-16 22:35:00
2:55 PM,41.0,29.5,64,30.47,10.0,East,4.6,-,N/A,,Clear,90,2014-01-16 22:55:00
3:15 PM,40.6,29.3,64,30.47,10.0,Calm,Calm,-,N/A,,Clear,0,2014-01-16 23:15:00
3:35 PM,40.3,29.3,65,30.46,10.0,Calm,Calm,-,N/A,,Clear,0,2014-01-16 23:35:00
3:55 PM,39.7,29.5,67,30.46,10.0,Calm,Calm,-,N/A,,Clear,0,2014-01-16 23:55:00
4:15 PM,38.8,30.0,71,30.46,10.0,Calm,Calm,-,N/A,,Clear,0,2014-01-17 00:15:00
4:35 PM,37.6,29.8,74,30.45,10.0,Calm,Calm,-,N/A,,Clear,0,2014-01-17 00:35:00
4:55 PM,36.7,28.9,74,30.45,7.0,Calm,Calm,-,N/A,,Clear,0,2014-01-17 00:55:00
5:15 PM,34.5,28.8,79,30.45,7.0,ESE,3.5,-,N/A,,Clear,120,2014-01-17 01:15:00
5:35 PM,32.9,27.9,82,30.45,7.0,SE,3.5,-,N/A,,Clear,140,2014-01-17 01:35:00
5:55 PM,32.4,27.7,83,30.45,7.0,Calm,Calm,-,N/A,,Clear,0,2014-01-17 01:55:00
6:15 PM,32.4,26.2,78,30.45,7.0,Calm,Calm,-,N/A,,Clear,0,2014-01-17 02:15:00
6:35 PM,30.9,25.9,82,30.45,5.0,SW,9.2,-,N/A,,Clear,220,2014-01-17 02:35:00
6:55 PM,31.1,25.5,80,30.45,7.0,WSW,3.5,-,N/A,,Clear,240,2014-01-17 02:55:00
7:15 PM,30.9,25.5,80,30.44,10.0,Calm,Calm,-,N/A,,Clear,0,2014-01-17 03:15:00
7:35 PM,31.1,25.9,81,30.44,7.0,Calm,Calm,-,N/A,,Clear,0,2014-01-17 03:35:00
7:55 PM,30.6,25.7,82,30.44,4.0,Calm,Calm,-,N/A,,Clear,0,2014-01-17 03:55:00
8:15 PM,29.7,26.2,87,30.43,4.0,ESE,4.6,-,N/A,,Clear,110,2014-01-17 04:15:00
8:35 PM,29.7,25.9,86,30.43,5.0,Calm,Calm,-,N/A,,Clear,0,2014-01-17 04:35:00
8:55 PM,30.9,26.2,83,30.43,7.0,SE,6.9,-,N/A,,Clear,130,2014-01-17 04:55:00
9:15 PM,31.5,25.5,79,30.43,7.0,Calm,Calm,-,N/A,,Clear,0,2014-01-17 05:15:00
9:35 PM,29.3,24.8,83,30.43,7.0,SW,8.1,-,N/A,,Clear,220,2014-01-17 05:35:00
9:55 PM,28.6,24.4,84,30.42,10.0,SW,9.2,-,N/A,,Clear,220,2014-01-17 05:55:00
10:15 PM,28.9,24.6,84,30.42,10.0,SW,10.4,-,N/A,,Clear,230,2014-01-17 06:15:00
10:35 PM,27.9,23.9,85,30.42,10.0,SW,6.9,-,N/A,,Clear,230,2014-01-17 06:35:00
10:55 PM,29.8,24.6,81,30.42,10.0,SSW,3.5,-,N/A,,Clear,210,2014-01-17 06:55:00
11:15 PM,31.5,24.4,75,30.41,10.0,ESE,4.6,-,N/A,,Clear,120,2014-01-17 07:15:00
11:35 PM,30.7,23.9,76,30.40,7.0,SSE,8.1,-,N/A,,Clear,150,2014-01-17 07:35:00
11:55 PM,29.1,23.7,80,30.40,7.0,Calm,Calm,-,N/A,,Clear,0,2014-01-17 07:55:00